Home   Weather   Gatineau   Past weeks
Flag for Canada

Past Weather in Gatineau, Quebec, Canada — Yesterday and Last 2 Weeks

Now
52 °F

Passing clouds.


Feels Like: 46 °F
Forecast: N/A
Wind: 17 mph from Southwest

Location: Ottawa Int'L. Ont.

Current Time: Oct 23, 2019 at 7:56:33 pm

Latest Report: Oct 23, 2019 at 7:00 pm


Visibility: 15 mi

Pressure: 29.93 "Hg

Humidity: 50%

Dew Point: 34 °F

Location of GatineauLocation

Past Weather in Gatineau — Graph

°F

Gatineau Temperature Yesterday

Maximum temperature yesterday: 54 °F (at 12:00 pm)
Minimum temperature yesterday: 48 °F (at 4:00 am)
Average temperature yesterday: 52 °F

High & Low Weather Summary for the Past Weeks

 TemperatureHumidityPressure
High68 °F (Oct 11, 3:00 pm)100% (Oct 9, 4:00 am)30.46 "Hg (Oct 9, 4:00 am)
Low30 °F (Oct 19, 7:00 am)26% (Oct 11, 2:00 pm)29.32 "Hg (Oct 17, 9:00 am)
Average48 °F77%29.98 "Hg
* Reported Oct 8 6:00 pm — Oct 23 6:00 pm, Gatineau. Weather by CustomWeather, © 2019

Note: Actual official high and low records may vary slightly from our data, if they occured in-between our weather recording intervals... More about our weather records

Advertising

Gatineau Weather History for the Previous 24 Hours

Scroll right to see more
 ConditionsComfort  
Time TempWeatherWind HumidityBarometerVisibility
6:00 pm
Wed, Oct 23
54 °FPartly sunny.17 mph51%29.89 "Hg15 mi
5:00 pm54 °FPartly sunny.8 mph54%29.86 "Hg15 mi
4:00 pm55 °FPartly sunny.12 mph51%29.84 "Hg15 mi
3:00 pm55 °FBroken clouds.13 mph51%29.83 "Hg15 mi
2:00 pm55 °FPartly sunny.17 mph51%29.83 "Hg15 mi
1:00 pm55 °FPartly sunny.17 mph55%29.82 "Hg15 mi
12:00 pm55 °FScattered clouds.12 mph59%29.82 "Hg15 mi
11:00 am54 °FPassing clouds.14 mph67%29.83 "Hg15 mi
10:00 am52 °FPassing clouds.7 mph82%29.83 "Hg15 mi
9:00 am48 °FPassing clouds.9 mph87%29.82 "Hg15 mi
8:00 am45 °FPassing clouds.6 mph93%29.81 "Hg15 mi
7:00 am45 °FPassing clouds.6 mph93%29.80 "Hg15 mi
6:00 am46 °FPassing clouds.5 mph93%29.79 "Hg10 mi
5:00 am48 °FPassing clouds.7 mph100%29.78 "Hg15 mi
4:00 am50 °FPassing clouds.6 mph94%29.76 "Hg10 mi
3:00 am52 °FPassing clouds.7 mph94%29.75 "Hg15 mi
2:00 am52 °FPassing clouds.6 mph94%29.75 "Hg15 mi
1:00 am54 °FPassing clouds.8 mph94%29.75 "Hg15 mi
12:40 am54 °FPassing clouds.8 mph94%29.75 "Hg15 mi
12:00 am54 °FPassing clouds.8 mph94%29.75 "Hg15 mi
11:00 pm
Tue, Oct 22
54 °FMostly cloudy.10 mph100%29.75 "Hg15 mi
10:25 pm54 °FLight rain. Overcast.12 mph100%29.75 "Hg10 mi
10:00 pm54 °FLight rain. Mostly cloudy.12 mph100%29.76 "Hg8 mi
9:47 pm54 °FLight rain. Mostly cloudy.12 mph100%29.76 "Hg10 mi
9:29 pm54 °FOvercast.16 mph100%29.75 "Hg10 mi
9:00 pm54 °FLight rain. Overcast.10 mph100%29.76 "Hg10 mi
8:00 pm54 °FLight rain. Overcast.10 mph100%29.78 "Hg8 mi
7:18 pm54 °FLight rain. Fog.7 mph94%29.78 "Hg6 mi
7:00 pm54 °FRain. Fog.8 mph94%29.79 "Hg4 mi
Weather by CustomWeather, © 2019

See weather overview